Weather Roundup
Issued by NWS

Home | Current Version | Previous Version | Text Only | Print | Product List | Glossary On
Versions: 1 2 3 4 5 6 7 8 9 10 11 12 13 14 15 16 17 18 19 20 21 22 23 24 25 26 27 28 29 30 31 32 33 34 35 36 37 38 39 40 41 42 43 44 45 46 47 48 49 50
000
NZUS93 KARX 030759
HRRWXR

CURRENT HOURLY OBSERVATIONS ACROSS
MUCH OF THE UPPER MISSISSIPPI VALLEY
NATIONAL WEATHER SERVICE LA CROSSE WI
300 AM CDT SUN MAY 03 2015


...SOUTHEAST MINNESOTA...


CITY           SKY/WX    TMP DP  RH WIND       PRES   REMARKS
ROCHESTER      CLEAR     55  49  80 S9        29.84F
ROCHESTER/MAYO FAIR      57  51  80 SE9       29.83F
WINONA         CLEAR     59  50  72 CALM      29.84F
AUSTIN         PTCLDY    55  50  82 S6        29.82F
ALBERT LEA     PTCLDY    57  50  77 S13       29.80F
DODGE CENTER   CLEAR     55  50  82 S12       29.82S
PRESTON        CLEAR     55  50  81 S8        29.85F
OWATONNA       CLEAR     57  48  72 S12       29.81S
FARIBAULT      CLEAR     57  50  77 S9        29.80F
$$

...ELSEWHERE IN MINNESOTA...


CITY           SKY/WX    TMP DP  RH WIND       PRES   REMARKS
MINNEAPOLIS    PTCLDY    62  51  67 S14       29.76F
INTNL FALLS    CLOUDY    58  45  62 CALM      29.62S
DULUTH         CLOUDY    55  43  63 S7        29.69S
RED WING       CLEAR     61  48  63 SE6       29.80F
REDWOOD FALLS  CLEAR     57  50  77 SE6       29.75R
MANKATO        CLEAR     55  46  71 SE14      29.78F
WORTHINGTON    CLOUDY    57  48  72 S14       29.73F
FAIRMONT       MOCLDY    55  46  71 SE8       29.76S
$$

...SOUTHWEST WISCONSIN...


CITY           SKY/WX    TMP DP  RH WIND       PRES   REMARKS
LA CROSSE      CLEAR     61  52  72 S7        29.84F
PRAIRIE DU CHI MOCLDY    59  49  69 E5        29.88F
BOSCOBEL       CLEAR     53  48  83 CALM      29.89F
LONE ROCK      NOT AVBL
PLATTEVILLE    PTCLDY    58  50  76 S5        29.92F
FORT MC COY    CLEAR     57  48  72 CALM      29.88F
VIROQUA        FAIR      56  50  79 S7        29.88F
WIS DELLS      NOT AVBL
$$

...ELSEWHERE IN WISCONSIN...


CITY           SKY/WX    TMP DP  RH WIND       PRES   REMARKS
MILWAUKEE      PTCLDY    60  39  45 SW7       29.94S
MADISON        MOCLDY    61  49  64 SW5       29.92F
GREEN BAY      CLEAR     55  45  68 S5        29.88F
EAU CLAIRE     NOT AVBL
BLACK RVR FLS  FAIR      57  49  74 S3        29.85F
MEDFORD        CLEAR     57  49  72 S10       29.84F
WAUSAU         FAIR      58  49  72 SW6       29.84S
WIS RAPIDS     CLEAR     56  47  71 SW7       29.88F
MARSHFIELD     CLEAR     57  48  72 SW7       29.85F
RICE LAKE      PTCLDY    61  49  65 S13G18    29.79F
$$

...NORTHEAST IOWA...


CITY           SKY/WX    TMP DP  RH WIND       PRES   REMARKS
DECORAH        CLOUDY    59  52  77 S8        29.85F
MASON CITY     MOCLDY    55  49  80 S9        29.82F
CHARLES CITY   MOCLDY    59  52  77 S14       29.84F
OELWEIN        PTCLDY    57  52  82 S12       29.88S
$$

...ELSEWHERE IN IOWA...


CITY           SKY/WX    TMP DP  RH WIND       PRES   REMARKS
DES MOINES     LGT RAIN  61  52  72 S14       29.84S
IOWA CITY      LGT RAIN  57  52  83 S15       29.92F
FORT DODGE     CLOUDY    57  52  82 S10G16    29.77F
$$

...NORTHERN ILLINOIS...


CITY           SKY/WX    TMP DP  RH WIND       PRES   REMARKS
CHICAGO-OHARE  MOCLDY    61  40  45 SW8       29.96F
CHICAGO-MIDWAY MOCLDY    61  41  47 S7        29.97F
MOLINE         CLOUDY    61  48  62 VRB5      29.92F
ROCKFORD       CLOUDY    59  44  57 S3        29.97F
PEORIA         CLOUDY    61  46  57 S5        29.98S
$$

NOTE: "FAIR" INDICATES FEW OR NO CLOUDS BELOW 12,000 FEET WITH NO
SIGNIFICANT WEATHER AND/OR OBSTRUCTIONS TO VISIBILITY. WIND
SPEEDS ARE IN MILES-PER-HOUR.



USA.gov is the U.S. government's official web portal to all federal, state and local government web resources and services.